Location: Ravensburg
(47.7866°N, 9.6124°E)
Time: 20:12:23
(UTC+02:00)

ITAMSAT 1 - Pass Details

Date: 19 March 2026
Orbit: 782 x 793 km, 98.7° (Epoch: 14 April)

Event Time Altitude Azimuth Distance (km) Brightness Sun altitude
Exits shadow 23:22:16 11° 292° (WNW) 2,260 10.4 -40.3°
Drops below altitude 10° 23:22:56 10° 299° (WNW) 2,352 10.6 -40.3°
Sets 23:26:47 0° 328° (NNW) 3,290 11.7 -40.6°
